Branson, MO

1:36 PM CDT on April 23, 2017 (GMT -0500)
Branson

Weather History for KBBG - January, 2014

Change the Weather History Date:

Friday, January 24, 2014

  Actual Average (KHRO) Record (KHRO)
Temperature  
Mean Temperature 19 °F -  
Max Temperature 35 °F 48 °F 81 °F (1943)
Min Temperature 3 °F 28 °F -2 °F (1930)
Degree Days  
Heating Degree Days 46    
Moisture  
Dew Point -6 °F    
Average Humidity 29    
Maximum Humidity 66    
Minimum Humidity 13    
Precipitation  
Precipitation 0.00 in - - ()
Sea Level Pressure  
Sea Level Pressure 30.39 in    
Wind  
Wind Speed 6 mph (SW)    
Max Wind Speed 17 mph    
Max Gust Speed 29 mph    
Visibility 10 miles    
Events      
Averages and records for this station are not official NWS values.
T = Trace of Precipitation, MM = Missing Value Source: NWS Daily Summary

Daily Weather History Graph

Daily Weather History Graph

Search for Another Location

Airport or City:

Trip Planner

Search our weather history database for the weather conditions in past years. The results will help you decide how hot, cold, wet, or windy it might be!

Date:

Astronomy

Jan. 24, 2014 Rise Set
Actual Time 7:19 AM CST 5:30 PM CST
Civil Twilight 6:52 AM CST 5:57 PM CST
Nautical Twilight 6:21 AM CST 6:29 PM CST
Astronomical Twilight 5:50 AM CST 6:59 PM CST
Moon 12:50 AM CST (1/24) 11:47 AM CST (1/24)
Length of Visible Light 11h 05m
Length of Day
10h 10m
Last Quarter, 44% of the Moon is Illuminated
Jan 24
Last Quarter
Jan 30
New
Feb 6
First Quarter
Feb 14
Full
Feb 22
Last Quarter

Hourly Weather History & Observations

Time (CST) Temp. Windchill Dew Point Humidity Pressure Visibility Wind Dir Wind Speed Gust Speed Precip Events Conditions
12:15 AM 6.8 °F - - N/A% 30.70 in 10.0 mi Calm Calm - N/A   Clear
12:35 AM 6.8 °F - - N/A% 30.69 in 10.0 mi Calm Calm - N/A   Clear
12:55 AM 6.8 °F - - N/A% 30.68 in 10.0 mi Calm Calm - N/A   Clear
1:15 AM 6.8 °F -0.1 °F - N/A% 30.67 in 10.0 mi SSW 3.5 mph - N/A   Clear
1:35 AM 5.0 °F -2.1 °F - N/A% 30.67 in 10.0 mi SW 3.5 mph - N/A   Clear
1:55 AM 5.0 °F -4.1 °F - N/A% 30.66 in 10.0 mi SSW 4.6 mph - N/A   Clear
2:15 AM 5.0 °F -2.1 °F - N/A% 30.66 in 10.0 mi SW 3.5 mph - N/A   Clear
2:35 AM 5.0 °F -2.1 °F - N/A% 30.66 in 10.0 mi SW 3.5 mph - N/A   Clear
2:55 AM 5.0 °F -2.1 °F - N/A% 30.65 in 10.0 mi WSW 3.5 mph - N/A   Clear
3:15 AM 5.0 °F -2.1 °F - N/A% 30.65 in 10.0 mi SW 3.5 mph - N/A   Clear
3:35 AM 5.0 °F -2.1 °F - N/A% 30.64 in 10.0 mi SW 3.5 mph - N/A   Clear
3:55 AM 5.0 °F -2.1 °F - N/A% 30.63 in 10.0 mi SW 3.5 mph - N/A   Clear
4:15 AM 5.0 °F -4.1 °F - N/A% 30.63 in 10.0 mi SW 4.6 mph - N/A   Clear
4:35 AM 5.0 °F -2.1 °F - N/A% 30.62 in 10.0 mi SSW 3.5 mph - N/A   Clear
4:55 AM 5.0 °F -2.1 °F - N/A% 30.60 in 10.0 mi SSW 3.5 mph - N/A   Clear
5:15 AM 3.2 °F -6.2 °F - N/A% 30.60 in 10.0 mi SSW 4.6 mph - N/A   Clear
5:35 AM 5.0 °F -2.1 °F - N/A% 30.59 in 10.0 mi SW 3.5 mph - N/A   Clear
5:55 AM 5.0 °F -2.1 °F - N/A% 30.58 in 10.0 mi WSW 3.5 mph - N/A   Clear
6:15 AM 5.0 °F - - N/A% 30.57 in 10.0 mi Calm Calm - N/A   Clear
6:35 AM 5.0 °F - - N/A% 30.57 in 10.0 mi Calm Calm - N/A   Clear
6:45 AM 3.2 °F -7.8 °F -5.8 °F 66% 30.57 in 10.0 mi South 5.8 mph - N/A   Clear
7:45 AM 6.8 °F -6.9 °F -5.8 °F 56% 30.56 in 10.0 mi SW 9.2 mph - N/A   Clear
8:45 AM 10.4 °F -2.4 °F -5.8 °F 48% 30.53 in 10.0 mi SW 9.2 mph - N/A   Clear
9:50 AM 14.0 °F -0.8 °F -4.0 °F 45% 30.51 in 10.0 mi West 13.8 mph - N/A   Clear
10:55 AM 21.2 °F 10.9 °F -9.4 °F 26% 30.47 in 10.0 mi WSW 9.2 mph 19.6 mph N/A   Clear
11:45 AM 26.6 °F 16.8 °F -13.0 °F 17% 30.43 in 10.0 mi WSW 10.4 mph 19.6 mph N/A   Clear
12:50 PM 32.0 °F 23.6 °F -11.2 °F 15% 30.35 in 10.0 mi West 10.4 mph 20.7 mph N/A   Clear
1:45 PM 32.0 °F 22.1 °F -14.8 °F 13% 30.29 in 10.0 mi WSW 13.8 mph 20.7 mph N/A   Clear
2:45 PM 35.6 °F 25.9 °F -11.2 °F 13% 30.22 in 10.0 mi SW 16.1 mph 28.8 mph N/A   Clear
3:50 PM 35.6 °F 27.1 °F -5.8 °F 17% 30.16 in 10.0 mi SW 12.7 mph 19.6 mph N/A   Clear
4:45 PM 35.6 °F 28.0 °F -0.4 °F 22% 30.12 in 10.0 mi SW 10.4 mph 21.9 mph N/A   Clear
5:45 PM 32.0 °F 20.8 °F 1.4 °F 27% 30.11 in 10.0 mi SW 17.3 mph 24.2 mph N/A   Partly Cloudy
6:45 PM 32.0 °F 23.6 °F -0.4 °F 25% 30.11 in 10.0 mi SW 10.4 mph 17.3 mph N/A   Scattered Clouds
7:45 PM 32.0 °F 22.5 °F -0.4 °F 25% 30.09 in 10.0 mi SW 12.7 mph 20.7 mph N/A   Mostly Cloudy
8:45 PM 32.0 °F 23.6 °F -0.4 °F 25% 30.05 in 10.0 mi WSW 10.4 mph 24.2 mph N/A   Scattered Clouds
9:15 PM 32.0 °F 20.8 °F - N/A% 30.02 in 10.0 mi WSW 17.3 mph 25.3 mph N/A   Partly Cloudy
9:35 PM 32.0 °F 22.1 °F - N/A% 30.02 in 10.0 mi WSW 13.8 mph 26.5 mph N/A   Clear
9:55 PM 32.0 °F 21.6 °F - N/A% 30.01 in 10.0 mi WSW 15.0 mph 24.2 mph N/A   Partly Cloudy
10:15 PM 32.0 °F 20.8 °F - N/A% 30.00 in 10.0 mi WSW 17.3 mph 26.5 mph N/A   Scattered Clouds
10:35 PM 32.0 °F 21.6 °F - N/A% 29.98 in 10.0 mi WSW 15.0 mph 26.5 mph N/A   Partly Cloudy
10:55 PM 32.0 °F 21.6 °F - N/A% 29.98 in 10.0 mi WSW 15.0 mph 26.5 mph N/A   Clear
11:15 PM 32.0 °F 23.0 °F - N/A% 29.96 in 10.0 mi WSW 11.5 mph 23.0 mph N/A   Clear
11:35 PM 32.0 °F 22.5 °F - N/A% 29.95 in 10.0 mi WSW 12.7 mph 25.3 mph N/A   Clear
11:55 PM 32.0 °F 21.6 °F - N/A% 29.94 in 10.0 mi WSW 15.0 mph 26.5 mph N/A   Clear